Flag for U.S.A. Weather past 2 weeks in Greenville, South Carolina, U.S.A.

Now
48 °F

Sunny.


Feels Like: 43 °F
Forecast: 33 / 49 °F
Wind: 10 mph from Northeast

Location: Greenville Downtown Airport

Current Time: Jan 30, 2015 at 12:52:54 PM

Latest Report: Jan 30, 2015 at 11:53 AM


Visibility: 10 mi

Pressure: 30.22 "Hg

Humidity: 30%

Dew point: 18 °F

Location of GreenvilleLocation

Historic Weather in Greenville — Graph

°F

Greenville temperature yesterday

Maximum temperature yesterday: 53 °F (at 2:53 PM)
Minimum temperature yesterday: 32 °F (at 3:53 AM)
Average temperature yesterday: 43 °F

Past Weeks' High & Low Weather Summary

 TemperatureHumidityPressure
High68 °F (Jan 20, 1:53 PM)97% (Jan 16, 2:53 AM)30.34 "Hg (Jan 16, 2:53 AM)
Low30 °F (Jan 16, 7:53 AM)17% (Jan 21, 4:53 PM)29.63 "Hg (Jan 24, 5:04 AM)
Average45 °F52%30.03 "Hg
* Reported Jan 15 11:53 AM — Jan 30 11:53 AM, Greenville, Weather by CustomWeather, © 2014

Note: Actual official high and low records may vary slightly from our data, if they occured in-between our weather recording intervals... More about our weather records

Advertising

Greenville weather history for previous 24 hours

 ConditionsComfort  
Time TempWeatherWind HumidityBarometerVisibility
11:53 AM
Jan 30
48 °FSunny.10 mph30%30.22 "Hg10 mi
10:53 AM47 °FSunny.15 mph36%30.22 "Hg10 mi
9:53 AM44 °FSunny.12 mph40%30.21 "Hg10 mi
8:53 AM42 °FSunny.8 mph43%30.18 "Hg10 mi
7:53 AM38 °FSunny.10 mph55%30.15 "Hg10 mi
6:53 AM40 °FClear.17 mph53%30.13 "Hg10 mi
5:53 AM41 °FClear.9 mph58%30.09 "Hg10 mi
4:53 AM42 °FClear.8 mph60%30.06 "Hg10 mi
3:53 AM44 °FClear.8 mph63%30.03 "Hg10 mi
2:53 AM46 °FMostly cloudy.8 mph51%30.03 "Hg10 mi
1:53 AM47 °FOvercast.6 mph50%30.02 "Hg10 mi
12:53 AM46 °FOvercast.6 mph50%30.02 "Hg10 mi
11:53 PM
Jan 29
44 °FPassing clouds.5 mph51%30.04 "Hg10 mi
10:53 PM46 °FPassing clouds.3 mph46%30.07 "Hg10 mi
9:53 PM47 °FOvercast.6 mph42%30.09 "Hg10 mi
8:53 PM48 °FOvercast.9 mph39%30.12 "Hg10 mi
7:53 PM48 °FOvercast.8 mph39%30.13 "Hg10 mi
6:53 PM48 °FClear.8 mph37%30.12 "Hg10 mi
5:53 PM50 °FSunny.9 mph35%30.11 "Hg10 mi
4:53 PM51 °FSunny.10 mph33%30.12 "Hg10 mi
3:53 PM52 °FPassing clouds.10 mph32%30.14 "Hg10 mi
2:53 PM53 °FBroken clouds.13 mph31%30.15 "Hg10 mi
1:53 PM52 °FPassing clouds.13 mph32%30.18 "Hg10 mi
12:53 PM50 °FSunny.14 mph36%30.24 "Hg10 mi
Weather by CustomWeather, © 2014

See weather overviewHow to use our weather pages